Location: Nashville
(36.1660°N, 86.7840°W)
Time: 21:12:35
(UTC-06:00)

Altair - Visible Passes

Search period start: 22 January 2022 00:00
Search period end: 01 February 2022 00:00
Orbit: 1501 x 1683 km, 47.2° (Epoch: 22 January)

Date Brightness Start Highest point End Pass type
(mag) Time Alt. Az. Time Alt. Az. Time Alt. Az.
22 Jan 8.3 03:08:46 44° NNE 03:08:46 44° NNE 03:15:37 10° ENE visible
22 Jan 8.2 05:06:47 26° NW 05:12:14 45° N 05:21:48 10° ENE visible
23 Jan 8.7 02:44:55 35° NE 02:44:55 35° NE 02:50:21 10° ENE visible
23 Jan 8.2 04:42:56 33° NW 04:46:51 45° N 04:56:27 10° ENE visible
24 Jan 9.0 02:21:04 27° NE 02:21:04 27° NE 02:25:05 10° NE visible
24 Jan 8.1 04:19:04 39° NNW 04:21:29 44° N 04:31:05 10° ENE visible
24 Jan 8.0 06:17:54 10° WNW 06:28:02 63° NNE 06:37:56 10° ESE visible
25 Jan 9.3 01:57:12 21° NE 01:57:12 21° NE 01:59:50 10° NE visible
25 Jan 8.1 03:55:12 44° NNW 03:56:07 45° N 04:05:44 10° ENE visible
25 Jan 8.0 05:53:13 12° NW 06:02:43 60° NNE 06:12:37 10° ESE visible
26 Jan 9.6 01:33:19 15° NE 01:33:19 15° NE 01:34:34 10° NE visible
26 Jan 8.2 03:31:20 44° N 03:31:20 44° N 03:40:23 10° ENE visible
26 Jan 8.0 05:29:21 17° NW 05:37:24 57° NNE 05:47:17 10° E visible
27 Jan 8.4 03:07:28 41° NNE 03:07:28 41° NNE 03:15:02 10° ENE visible
27 Jan 8.0 05:05:29 24° NW 05:12:05 55° NNE 05:21:57 10° E visible
28 Jan 8.7 02:43:37 35° NE 02:43:37 35° NE 02:49:42 10° ENE visible
28 Jan 8.1 04:41:37 30° NW 04:46:45 53° NNE 04:56:35 10° E visible
29 Jan 9.0 02:19:46 28° NE 02:19:46 28° NE 02:24:21 10° ENE visible
29 Jan 8.1 04:17:47 38° NNW 04:21:24 51° NNE 04:31:14 10° E visible
29 Jan 7.8 06:16:48 10° WNW 06:27:01 81° SW 06:37:02 10° SE visible
30 Jan 9.3 01:55:56 22° NE 01:55:56 22° NE 01:59:02 10° ENE visible
30 Jan 8.1 03:53:58 44° NNW 03:56:04 50° NNE 04:05:51 10° E visible
30 Jan 7.7 05:51:58 12° WNW 06:01:48 86° SW 06:11:52 10° SE visible
31 Jan 9.6 01:32:09 16° ENE 01:32:09 16° ENE 01:33:42 10° ENE visible
31 Jan 8.1 03:30:10 48° N 03:30:43 48° NNE 03:40:28 10° E visible
31 Jan 7.7 05:28:11 17° NW 05:36:34 89° NE 05:46:40 10° SE visible
